This is the latest recevied weather packets stored in our database for station/object EA1IOK-1. If no packets are shown the sender has not sent any weather packets the latest 10 day(s).
| Time | Temp. | Humidity | Pressure | Rain* | Wind** | Luminosity | Snow |
|---|---|---|---|---|---|---|---|
| 1778128101 | 6.11° C | 100% | 1009.8 hPa | - | - | - | - |
| 1778127193 | 5.56° C | 100% | 1009.8 hPa | - | - | - | - |
| 1778126297 | 6.11° C | 100% | 1009.8 hPa | - | - | - | - |
| 1778125407 | 6.11° C | 100% | 1010 hPa | - | - | - | - |
| 1778124492 | 5.56° C | 100% | 1010.1 hPa | - | - | - | - |
| 1778123593 | 6.11° C | 100% | 1010.1 hPa | - | - | - | - |
| 1778122694 | 6.11° C | 100% | 1010 hPa | - | - | - | - |
| 1778121789 | 6.11° C | 100% | 1010.2 hPa | - | - | - | - |
| 1778120895 | 6.67° C | 100% | 1010.1 hPa | - | - | - | - |
| 1778119989 | 7.22° C | 100% | 1010.3 hPa | - | - | - | - |
| 1778119124 | 6.67° C | 100% | 1010.3 hPa | - | - | - | - |
| 1778119092 | 6.67° C | 100% | 1010.3 hPa | - | - | - | - |
| 1778118191 | 6.11° C | 100% | 1010.3 hPa | - | - | - | - |
| 1778117286 | 6.67° C | 100% | 1010.5 hPa | - | - | - | - |
| 1778116385 | 6.11° C | 100% | 1010.5 hPa | - | - | - | - |
| 1778115522 | 6.11° C | 100% | 1010.7 hPa | - | - | - | - |
| 1778115485 | 6.11° C | 100% | 1010.7 hPa | - | - | - | - |
| 1778114584 | 6.67° C | 100% | 1010.8 hPa | - | - | - | - |
| 1778113683 | 6.67° C | 100% | 1010.9 hPa | - | - | - | - |
| 1778112785 | 6.67° C | 100% | 1010.9 hPa | - | - | - | - |
| 1778111887 | 6.67° C | 100% | 1010.9 hPa | - | - | - | - |
| 1778110981 | 7.22° C | 100% | 1011 hPa | - | - | - | - |
| 1778110084 | 7.22° C | 100% | 1011 hPa | - | - | - | - |
| 1778109184 | 7.78° C | 100% | 1011 hPa | - | - | - | - |
| 1778108315 | 8.33° C | 100% | 1011.1 hPa | - | - | - | - |
* Rain since midnight (hover to see other rain measurements)
** Current wind speed in m/s (hover to see current wind gust speed)